OBJECT AP, 57203

Orbit data source: Space-Track

You're viewing an Uncataloged Satellite

Recently launched and/or uncataloged satellites may have evolving metadata. Metadata may include but not limited to: Owner, Maufacturer, Bus, Motor, and Mission.

OBJECT AP, 57203 is a satellite in SSO that was launched on Tue, 27 Jun 2023 UTC via a SOYUZ-2-1B launch vehicle from the Vostochny Cosmodrome (VOSTO). Unknown objects in Earth's orbit typically refer to objects detected orbiting the Earth but have not yet been identified or cataloged. These objects could be anything from previously untracked satellites, spent rocket stages, debris from satellite collisions, or even natural meteoroids temporarily captured by Earth's gravity.

Loading next visibility...
Identifier
57203, 2023-091AP
Orbit
SSO
Country
Flag of TBDTBD
Related business
Flag of RUUniversity of Tyumen (RU)
Manufacturer
Sputniks
Mission
Operational Amateur Imaging
Bus & Motor
CUBESAT 3U, Unknown motor
Mass
4 kg wet, 4 kg dry
Launch date (UTC)
2023-06-27 (3 years ago)
Launch vehicle
SOYUZ-2-1B
Launch site
Vostochny Cosmodrome (VOSTO)
Object type
Unknown
Shape & HBR
Box, 0.1 m
Radar Cross Section
0.035 m², Small (<0.1 m²)

Expand to show TLE details & history
Last TLE update: 9 hours ago

TLE from 9 hours ago
0 OBJECT AP
1 57203U 23091AP  26104.28081425  .00006557  00000-0  22464-3 0  9999
2 57203  97.5139 170.6801 0006810 310.3268  49.7377 15.30534801154764
Epoch: 2026-04-14T06:44Z
TLE epoch observation values (Epoch: 2026-04-14T06:44:22.351Z)
Latitude
-0.00001°
Longitude
-132.87235°
Altitude
474.302 km
Speed
7.63 km/s
True Right ascension
11h 22m 43s
True Declination
0° 00' 00"
Sunlit
Object was in full shadow at epoch
Visualization orbit readout
Latitude
Unknown
Longitude
Unknown
Altitude
Unknown
Speed
Unknown
Apparent Right ascension
Unknown
Apparent Declination
Unknown
Sunlit
N/A
Visualization observer readout
Local Sidereal Time
22:35:45
Azimuth
Unknown
Elevation
Unknown
Doppler factor
Unknown
Orbital elements
Apogee altitude
475.836 km
Perigee altitude
466.508 km
Semi-major axis
6,849.309 km
Eccentricity
0.00068
Inclination
97.5139°
RAAN
170.6801°
Arg. of periapsis
310.3268°
True anomaly
49.79728°
Mean anomaly
49.7377°
Eccentric anomaly
49.76749°
Mean motion
3.82889 °/min
Orbital period
94.02 mins
BSTAR
0.00022464
Loading maneuver chart data...
Computing Atmospheric mass density...
Loading historical data...
Loading historical data...
Loading historical data...
Loading historical data...
Loading historical data...
Loading historical data...
Loading historical data...

Documentation

Showing up to 5 results
|